Location: Berlin
(52.5170°N, 13.3889°E)
Time: 22:43:19
(UTC+02:00)

LES 1 - Pass Details

Date: 23 June 2025
Orbit: 2779 x 2808 km, 32.1° (Epoch: 12 July)

Event Time Altitude Azimuth Distance (km) Brightness Sun altitude
Rises 02:47:42 0° 263° (W) 6,575 12.0 -11.0°
Reaches altitude 10° 02:52:44 10° 253° (WSW) 5,556 11.5 -10.7°
Maximum altitude 03:05:02 28° 201° (SSW) 4,226 10.7 -9.9°
Drops below altitude 10° 03:17:24 10° 149° (SSE) 5,565 11.6 -9.0°
Sets 03:22:30 0° 139° (SE) 6,588 12.1 -8.6°
